Red Bluff, CA

9:30 PM PST on December 09, 2019 (GMT -0800)
Red Bluff Municipal

Weather History for KRBL - October, 2019

Change the Weather History Date:

Saturday, October 26, 2019

  Actual Average Record
Temperature  
Mean Temperature 67 °F -  
Max Temperature 84 °F 74 °F 96 °F (2003)
Min Temperature 50 °F 48 °F 37 °F (1939)
Cooling Degree Days 2    
Growing Degree Days 17 (Base 50)    
Moisture  
Dew Point 32 °F    
Average Humidity 35    
Maximum Humidity 50    
Minimum Humidity 8    
Precipitation  
Precipitation 0.00 in - - ()
Sea Level Pressure  
Sea Level Pressure 29.92 in    
Wind  
Wind Speed 8 mph (NNW)    
Max Wind Speed 22 mph    
Max Gust Speed 32 mph    
Visibility 5 miles    
Events      
Averages and records for this station are not official NWS values.
T = Trace of Precipitation, MM = Missing Value Source: NWS Daily Summary

Daily Weather History Graph

Daily Weather History Graph

Search for Another Location

Airport or City:

Astronomy

Oct. 26, 2019 Rise Set
Actual Time 7:31 AM PDT 6:13 PM PDT
Civil Twilight 7:03 AM PDT 6:41 PM PDT
Nautical Twilight 6:31 AM PDT 7:13 PM PDT
Astronomical Twilight 6:00 AM PDT 7:44 PM PDT
Moon 5:33 AM PDT (10/26) 5:52 PM PDT (10/26)
Length of Visible Light 11h 38m
Length of Day
10h 42m
Waning Crescent, 3% of the Moon is Illuminated
Oct 26
Waning Crescent
Oct 27
New
Nov 4
First Quarter
Nov 12
Full
Nov 19
Last Quarter

Hourly Weather History & Observations

Time (PDT) Temp. Dew Point Humidity Pressure Visibility Wind Dir Wind Speed Gust Speed Precip Events Conditions
12:06 AM 55.0 °F 28.9 °F 37% 29.99 in 1.2 mi WNW 5.8 mph - N/A   Haze
12:25 AM 55.9 °F 28.0 °F 34% 29.99 in 2.0 mi NW 8.1 mph - N/A   Haze
12:54 AM 55.0 °F 28.0 °F 35% 29.98 in 1.8 mi NW 6.9 mph - N/A   Haze
1:02 AM 55.9 °F 28.0 °F 34% 29.98 in 3.0 mi NNW 8.1 mph - N/A   Haze
1:15 AM 57.9 °F 28.0 °F 32% 29.98 in 1.8 mi NW 5.8 mph - N/A   Haze
1:21 AM 55.0 °F 28.0 °F 35% 29.98 in 0.8 mi NW 6.9 mph - N/A   Haze
1:32 AM 54.0 °F 28.0 °F 37% 29.97 in 1.2 mi NW 5.8 mph - N/A   Haze
1:38 AM 54.0 °F 28.9 °F 38% 29.97 in 2.0 mi NNW 5.8 mph - N/A   Haze
1:47 AM 53.1 °F 28.9 °F 40% 29.97 in 3.0 mi NW 4.6 mph - N/A   Haze
1:52 AM 53.6 °F 28.4 °F 38% 29.97 in 1.5 mi NW 5.8 mph - N/A   Haze
1:54 AM 53.1 °F 28.9 °F 40% 29.97 in 1.2 mi NW 6.9 mph - N/A   Haze
2:13 AM 54.0 °F 28.9 °F 38% 29.98 in 0.8 mi NNW 9.2 mph - N/A   Haze
2:27 AM 55.0 °F 28.9 °F 37% 29.97 in 2.0 mi NNW 6.9 mph - N/A   Haze
2:41 AM 55.9 °F 30.0 °F 37% 29.97 in 5.0 mi NNW 8.1 mph - N/A   Haze
2:48 AM 55.4 °F 30.2 °F 38% 29.97 in 1.5 mi NW 4.6 mph - N/A   Haze
2:54 AM 53.1 °F 30.0 °F 41% 29.96 in 1.0 mi NW 4.6 mph - N/A   Haze
3:01 AM 55.0 °F 30.0 °F 38% 29.96 in 0.8 mi NW 4.6 mph - N/A   Haze
3:10 AM 55.0 °F 30.0 °F 38% 29.97 in 1.5 mi NNW 4.6 mph - N/A   Haze
3:14 AM 55.0 °F 30.0 °F 38% 29.97 in 3.0 mi NNW 5.8 mph - N/A   Haze
3:27 AM 54.0 °F 30.0 °F 40% 29.96 in 1.5 mi WNW 3.5 mph - N/A   Haze
3:31 AM 54.0 °F 30.0 °F 40% 29.95 in 0.8 mi WNW 4.6 mph - N/A   Haze
3:45 AM 53.1 °F 30.0 °F 41% 29.95 in 1.8 mi NW 5.8 mph - N/A   Haze
3:47 AM 53.1 °F 30.0 °F 41% 29.95 in 3.0 mi NW 6.9 mph - N/A   Haze
3:54 AM 55.0 °F 30.9 °F 40% 29.94 in 5.0 mi NNW 6.9 mph - N/A   Haze
4:54 AM 54.0 °F 32.0 °F 43% 29.93 in 10.0 mi North 5.8 mph - N/A   Clear
5:54 AM 51.1 °F 33.1 °F 50% 29.92 in 10.0 mi NNE 5.8 mph - N/A   Clear
6:54 AM 55.0 °F 35.1 °F 47% 29.91 in 5.0 mi NNW 5.8 mph - N/A   Haze
7:36 AM 55.9 °F 35.1 °F 45% 29.92 in 1.2 mi NW 9.2 mph - N/A   Haze
7:47 AM 55.0 °F 35.1 °F 47% 29.92 in 1.8 mi NNW 8.1 mph - N/A   Haze
7:54 AM 55.9 °F 35.1 °F 45% 29.92 in 1.5 mi NNW 8.1 mph - N/A   Haze
8:04 AM 55.9 °F 35.1 °F 45% 29.93 in 1.2 mi NNW 6.9 mph - N/A   Haze
8:16 AM 57.0 °F 36.0 °F 45% 29.93 in 2.0 mi NNW 5.8 mph - N/A   Haze
8:24 AM 57.9 °F 36.0 °F 44% 29.93 in 8.0 mi NNW 4.6 mph - N/A   Clear
8:54 AM 61.0 °F 37.0 °F 41% 29.92 in 10.0 mi Calm Calm - N/A   Clear
9:54 AM 72.0 °F 41.0 °F 33% 29.91 in 10.0 mi North 17.3 mph 24.2 mph N/A   Clear
10:54 AM 75.0 °F 41.0 °F 29% 29.89 in 10.0 mi North 19.6 mph - N/A   Clear
11:54 AM 79.0 °F 39.0 °F 24% 29.87 in 10.0 mi North 18.4 mph - N/A   Clear
12:54 PM 81.0 °F 35.1 °F 19% 29.84 in 10.0 mi NNE 20.7 mph 29.9 mph N/A   Clear
1:54 PM 82.0 °F 34.0 °F 18% 29.82 in 10.0 mi North 21.9 mph 32.2 mph N/A   Clear
2:54 PM 84.0 °F 33.1 °F 16% 29.79 in 10.0 mi North 16.1 mph - N/A   Clear
3:54 PM 84.0 °F 30.0 °F 14% 29.76 in 10.0 mi North 13.8 mph - N/A   Clear
4:54 PM 82.0 °F 32.0 °F 16% 29.74 in 10.0 mi North 13.8 mph - N/A   Clear
5:54 PM 78.1 °F 32.0 °F 19% 29.74 in 10.0 mi North 8.1 mph - N/A   Clear